Location: Hertford
(51.8000°N, 0.0667°W)
Time: 22:28:50
(UTC+00:00)

Cosmos 1892 Rocket - Pass Details

Date: 18 September 2020
Orbit: 606 x 634 km, 82.5° (Epoch: 20 October)

Event Time Altitude Azimuth Distance (km) Brightness Sun altitude
Rises 20:13:43 0° 354° (N) 2,880 7.5 -19.5°
Reaches altitude 10° 20:16:03 10° 2° (N) 1,970 6.5 -19.8°
Enters shadow 20:20:08 41° 71° (ENE) 891 4.0 -20.4°
